period_start,C,m1,H,J0,J1,J2,J3,J4,J5,JA,JB,JC,JD,JJ,JK,JN,#
2013-07-26 00:00:48,0.00,1.00,0.00,34.22,38.10,39.45,5.62,31.29,1013.01,2003.99,3003.32,2984.07,3228.99,349.54,311.04,28.32,0000 0000 0000 0000 000000
2013-07-26 00:01:49,-0.01,1.00,0.00,34.20,38.09,39.47,5.60,31.29,1013.08,2003.99,3003.27,2984.04,3228.99,349.19,310.35,28.33,0000 0000 0000 0000 000000
2013-07-26 00:02:49,0.01,1.00,0.00,34.17,38.08,39.47,5.67,31.38,1013.06,2004.00,3003.25,2984.07,3228.99,349.62,310.98,28.34,0000 0000 0000 0000 000000
2013-07-26 00:03:49,0.00,1.00,0.00,34.18,38.08,39.42,5.74,31.46,1013.05,2004.01,3003.18,2984.08,3228.99,349.57,310.91,28.34,0000 0000 0000 0000 000000
2013-07-26 00:04:49,0.01,1.00,0.00,34.20,38.07,39.43,5.52,31.25,1012.95,2004.01,3003.25,2984.14,3228.99,349.18,310.02,28.35,0000 0000 0000 0000 000000
2013-07-26 00:05:49,-0.01,1.00,0.00,34.21,38.07,39.44,5.69,31.29,1012.94,2004.02,3003.23,2984.18,3229.00,350.11,311.12,28.35,0000 0000 0000 0000 000000
2013-07-26 00:06:50,0.00,1.00,0.00,34.20,38.05,39.45,5.97,31.38,1012.91,2004.04,3003.21,2984.17,3229.02,350.98,311.90,28.36,0000 0000 0000 0000 000000
2013-07-26 00:07:50,0.02,1.00,0.00,34.20,38.05,39.41,5.87,31.33,1012.86,2004.06,3003.23,2984.29,3229.03,350.46,311.42,28.37,0000 0000 0000 0000 000000
2013-07-26 00:08:50,-0.00,1.00,0.00,34.16,38.05,39.44,5.88,31.33,1012.93,2004.15,3003.21,2984.41,3229.03,350.53,311.73,28.37,0000 0000 0000 0000 000000
2013-07-26 00:09:50,0.04,1.00,0.00,34.12,38.04,39.45,5.74,31.42,1012.84,2004.24,3003.31,2984.55,3229.08,350.16,311.45,28.38,0000 0000 0000 0000 000000
2013-07-26 00:10:51,0.00,1.00,0.00,34.13,38.03,39.47,5.73,31.38,1012.74,2004.26,3003.38,2984.65,3229.16,349.77,310.84,28.38,0000 0000 0000 0000 000000
2013-07-26 00:11:51,-0.03,1.00,0.00,34.14,38.03,39.44,5.73,31.38,1012.72,2004.38,3003.42,2984.80,3229.30,349.83,310.87,28.39,0000 0000 0000 0000 000000
2013-07-26 00:12:51,0.08,1.00,0.00,34.18,38.03,39.43,5.72,31.38,1012.71,2004.52,3003.39,2984.83,3229.33,349.69,310.62,28.39,0000 0000 0000 0000 000000
2013-07-26 00:13:51,0.09,1.00,0.00,34.16,38.01,39.37,5.91,31.29,1012.71,2004.69,3003.55,2984.91,3229.53,350.82,311.73,28.40,0000 0000 0000 0000 000000
2013-07-26 00:14:52,0.05,1.00,0.00,34.20,38.00,39.39,5.66,31.46,1012.68,2004.81,3003.45,2984.93,3229.66,349.90,310.87,28.41,0000 0000 0000 0000 000000
2013-07-26 00:15:52,0.12,1.00,0.00,34.20,38.00,39.38,5.87,31.58,1012.68,2004.89,3003.36,2984.93,3229.67,350.50,311.40,28.41,0000 0000 0000 0000 000000
2013-07-26 00:16:52,0.04,1.00,0.00,34.15,38.00,39.41,5.80,31.71,1012.65,2004.93,3003.38,2984.96,3229.71,350.38,311.33,28.42,0000 0000 0000 0000 000000
2013-07-26 00:17:52,0.00,1.00,0.00,34.15,37.98,39.37,5.83,31.67,1012.64,2004.94,3003.37,2984.96,3229.75,350.08,311.06,28.42,0000 0000 0000 0000 000000
2013-07-26 00:18:52,0.01,1.00,0.00,34.12,37.98,39.36,5.70,31.46,1012.64,2004.96,3003.28,2984.97,3229.75,350.00,311.19,28.43,0000 0000 0000 0000 000000
2013-07-26 00:19:52,0.02,1.00,0.00,34.12,37.98,39.34,5.90,31.42,1012.60,2004.97,3003.28,2984.97,3229.83,350.83,311.63,28.44,0000 0000 0000 0000 000000
2013-07-26 00:20:53,0.00,1.00,0.00,34.09,37.97,39.31,5.76,31.46,1012.64,2004.99,3003.31,2984.97,3229.81,350.54,311.51,28.44,0000 0000 0000 0000 000000
2013-07-26 00:21:53,0.00,1.00,0.00,34.08,37.96,39.33,5.55,31.54,1012.61,2004.99,3003.21,2984.96,3229.80,349.29,310.60,28.45,0000 0000 0000 0000 000000
2013-07-26 00:22:53,0.02,1.00,0.00,34.09,37.95,39.32,5.72,31.58,1012.68,2004.99,3003.15,2984.98,3229.84,350.25,311.01,28.45,0000 0000 0000 0000 000000
2013-07-26 00:23:54,-0.00,1.00,0.00,34.08,37.95,39.29,5.78,31.63,1012.70,2004.99,3003.17,2984.99,3229.89,350.56,311.33,28.46,0000 0000 0000 0000 000000
2013-07-26 00:24:54,-0.01,1.00,0.00,34.06,37.95,39.32,5.78,31.79,1012.71,2004.99,3003.23,2984.98,3229.92,350.43,311.63,28.46,0000 0000 0000 0000 000000
2013-07-26 00:25:54,-0.01,1.00,0.00,34.07,37.93,39.32,5.61,31.38,1012.71,2004.99,3003.28,2984.99,3229.90,349.13,309.92,28.47,0000 0000 0000 0000 000000
2013-07-26 00:26:54,0.00,1.00,0.00,34.10,37.93,39.29,5.86,31.88,1012.71,2004.99,3003.25,2984.99,3229.88,349.93,311.02,28.48,0000 0000 0000 0000 000000
2013-07-26 00:27:55,0.00,1.00,0.00,34.11,37.93,39.28,5.63,31.58,1012.71,2004.99,3003.30,2984.99,3229.87,349.39,310.51,28.48,0000 0000 0000 0000 000000
2013-07-26 00:28:55,-0.00,1.00,0.00,34.12,37.92,39.27,5.88,31.71,1012.71,2004.99,3003.41,2984.99,3229.92,351.06,311.75,28.49,0000 0000 0000 0000 000000
2013-07-26 00:29:55,-0.02,1.00,0.00,34.09,37.91,39.32,5.82,31.58,1012.73,2004.99,3003.36,2984.99,3229.93,350.33,311.40,28.49,0000 0000 0000 0000 000000
2013-07-26 00:30:55,-0.00,1.00,0.00,34.06,37.90,39.31,5.72,31.50,1012.74,2004.99,3003.47,2984.99,3229.95,350.12,311.41,28.50,0000 0000 0000 0000 000000
2013-07-26 00:31:56,-0.01,1.00,0.00,34.03,37.90,39.28,5.66,31.50,1012.79,2004.99,3003.38,2984.99,3229.94,349.99,311.15,28.51,0000 0000 0000 0000 000000
2013-07-26 00:32:56,0.01,1.00,0.00,34.02,37.89,39.27,5.59,31.63,1012.83,2004.99,3003.40,2984.99,3229.94,349.44,310.68,28.51,0000 0000 0000 0000 000000
2013-07-26 00:33:56,0.00,1.00,0.00,34.04,37.88,39.26,5.70,31.54,1012.78,2004.99,3003.38,2984.99,3229.96,350.30,311.81,28.52,0000 0000 0000 0000 000000
2013-07-26 00:34:57,0.00,1.00,0.00,34.03,37.88,39.25,5.59,31.63,1012.75,2004.99,3003.34,2984.99,3229.96,349.18,310.65,28.52,0000 0000 0000 0000 000000
2013-07-26 00:35:57,0.01,1.00,0.00,34.01,37.87,39.23,5.96,31.83,1012.72,2004.99,3003.40,2984.99,3229.98,350.75,311.82,28.53,0000 0000 0000 0000 000000
2013-07-26 00:36:57,-0.01,1.00,0.00,34.00,37.86,39.26,5.74,31.50,1012.72,2004.99,3003.57,2984.99,3229.99,349.99,311.17,28.54,0000 0000 0000 0000 000000
2013-07-26 00:37:57,-0.02,1.00,0.00,33.99,37.85,39.24,5.67,31.50,1012.77,2005.01,3003.72,2985.01,3229.99,350.27,311.61,28.54,0000 0000 0000 0000 000000
2013-07-26 00:38:57,-0.02,1.00,0.00,33.98,37.85,39.20,5.62,31.38,1012.72,2005.04,3003.73,2985.01,3229.99,350.09,311.05,28.55,0000 0000 0000 0000 000000
2013-07-26 00:39:58,0.03,1.00,0.00,33.93,37.85,39.19,5.73,31.67,1012.72,2005.06,3003.62,2985.00,3229.99,350.12,311.05,28.55,0000 0000 0000 0000 000000
2013-07-26 00:40:58,0.03,1.00,0.00,33.92,37.83,39.17,5.79,31.67,1012.75,2005.04,3003.49,2985.01,3229.99,350.40,311.61,28.56,0000 0000 0000 0000 000000
2013-07-26 00:41:58,0.01,1.00,0.00,33.90,37.83,39.17,5.76,31.67,1012.74,2005.06,3003.58,2985.01,3229.99,349.63,310.94,28.56,0000 0000 0000 0000 000000
2013-07-26 00:42:58,0.01,1.00,0.00,33.90,37.83,39.18,5.78,31.79,1012.72,2005.11,3003.49,2985.01,3229.99,350.17,311.54,28.57,0000 0000 0000 0000 000000
2013-07-26 00:43:59,0.04,1.00,0.00,33.92,37.82,39.18,5.88,31.88,1012.71,2005.09,3003.33,2985.01,3229.99,349.93,311.40,28.58,0000 0000 0000 0000 000000
2013-07-26 00:44:59,0.01,1.00,0.00,33.93,37.81,39.15,5.89,31.79,1012.71,2005.13,3003.28,2985.00,3229.99,350.68,312.01,28.58,0000 0000 0000 0000 000000
2013-07-26 00:45:59,0.03,1.00,0.00,33.92,37.80,39.12,5.67,31.58,1012.71,2005.21,3003.44,2985.05,3229.99,350.29,311.43,28.59,0000 0000 0000 0000 000000
2013-07-26 00:46:59,0.04,1.00,0.00,33.93,37.80,39.10,5.80,31.54,1012.72,2005.43,3003.72,2985.22,3230.00,350.51,311.27,28.59,0000 0000 0000 0000 000000
2013-07-26 00:48:00,0.10,1.01,0.00,33.90,37.79,39.11,5.72,31.79,1012.73,2005.49,3003.69,2985.20,3230.00,349.67,310.97,28.60,0000 0000 0000 0000 000000
2013-07-26 00:49:00,0.06,1.01,0.00,33.88,37.78,39.11,5.73,31.71,1012.74,2005.63,3003.63,2985.31,3230.01,349.79,310.89,28.61,0000 0000 0000 0000 000000
2013-07-26 00:50:00,0.10,1.01,0.00,33.87,37.78,39.12,5.63,31.58,1012.82,2005.80,3003.64,2985.45,3230.04,349.57,310.95,28.61,0000 0000 0000 0000 000000
2013-07-26 00:51:01,0.10,1.01,0.00,33.89,37.78,39.13,5.78,32.00,1012.85,2005.87,3003.40,2985.37,3230.04,350.15,311.45,28.62,0000 0000 0000 0000 000000
2013-07-26 00:52:01,0.09,1.01,0.00,33.90,37.78,39.12,5.74,31.71,1012.77,2005.89,3003.45,2985.39,3230.06,350.32,311.74,28.62,0000 0000 0000 0000 000000
2013-07-26 00:53:01,0.01,1.01,0.00,33.85,37.76,39.14,5.76,31.63,1012.74,2005.93,3003.47,2985.44,3230.04,349.57,311.40,28.63,0000 0000 0000 0000 000000
2013-07-26 00:54:01,0.00,1.01,0.00,33.85,37.75,39.10,5.63,31.75,1012.73,2005.96,3003.40,2985.53,3230.06,349.26,310.67,28.63,0000 0000 0000 0000 000000
2013-07-26 00:55:02,0.00,1.01,0.00,33.88,37.75,39.08,5.78,31.58,1012.71,2005.98,3003.39,2985.62,3230.09,349.85,311.15,28.64,0000 0000 0000 0000 000000
2013-07-26 00:56:02,0.01,1.01,0.00,33.87,37.75,39.08,5.88,31.79,1012.72,2005.98,3003.24,2985.58,3230.11,350.31,311.45,28.65,0000 0000 0000 0000 000000
2013-07-26 00:57:02,0.02,1.01,0.00,33.88,37.73,39.10,5.77,31.79,1012.72,2005.98,3003.18,2985.51,3230.13,350.13,311.58,28.65,0000 0000 0000 0000 000000
2013-07-26 00:58:03,0.01,1.01,0.00,33.88,37.73,39.09,5.62,31.54,1012.71,2005.98,3003.17,2985.58,3230.18,349.82,310.96,28.66,0000 0000 0000 0000 000000
2013-07-26 00:59:03,-0.04,1.01,0.00,33.93,37.73,39.10,5.65,31.38,1012.71,2005.99,3003.44,2985.78,3230.45,350.36,311.45,28.66,0000 0000 0000 0000 000000
2013-07-26 01:00:03,-0.12,1.01,0.00,33.96,37.72,39.11,5.67,31.50,1012.74,2005.99,3003.59,2985.91,3230.67,349.13,310.45,28.67,0000 0000 0000 0000 000000
2013-07-26 01:01:03,-0.07,1.01,0.00,33.94,37.71,39.10,5.87,31.54,1012.75,2005.99,3003.41,2985.94,3230.71,349.67,311.36,28.68,0000 0000 0000 0000 000000
2013-07-26 01:02:04,0.01,1.01,0.00,33.92,37.70,39.13,5.70,31.46,1012.76,2005.99,3003.26,2985.95,3230.75,350.15,311.16,28.68,0000 0000 0000 0000 000000
2013-07-26 01:03:04,0.01,1.01,0.00,33.88,37.70,39.13,5.70,31.63,1012.81,2005.99,3003.26,2985.96,3230.82,350.14,311.27,28.69,0000 0000 0000 0000 000000
2013-07-26 01:04:04,-0.01,1.01,0.00,33.86,37.70,39.05,5.70,31.50,1012.95,2005.99,3003.22,2985.95,3230.80,350.06,311.43,28.69,0000 0000 0000 0000 000000
2013-07-26 01:05:05,0.01,1.01,0.00,33.84,37.68,39.09,5.82,31.67,1013.08,2005.99,3003.15,2985.94,3230.62,350.14,311.57,28.70,0000 0000 0000 0000 000000
2013-07-26 01:06:05,0.03,1.01,0.00,33.84,37.68,39.05,5.70,31.54,1013.19,2006.00,3003.09,2985.94,3230.64,350.13,311.59,28.71,0000 0000 0000 0000 000000
2013-07-26 01:07:05,0.01,1.01,0.00,33.85,37.68,39.03,5.71,31.50,1013.19,2006.03,3003.04,2985.95,3230.71,349.33,310.87,28.71,0000 0000 0000 0000 000000
2013-07-26 01:08:06,0.02,1.01,0.00,33.82,37.67,39.06,5.75,31.63,1013.20,2006.10,3003.05,2985.95,3230.77,349.79,311.31,28.72,0000 0000 0000 0000 000000
2013-07-26 01:09:06,0.03,1.01,0.00,33.82,37.65,39.04,5.81,31.58,1013.20,2006.06,3003.02,2985.95,3230.69,349.77,311.31,28.72,0000 0000 0000 0000 000000
2013-07-26 01:10:06,0.01,1.01,0.00,33.79,37.65,39.03,5.87,31.63,1013.20,2006.12,3003.00,2985.90,3230.57,350.10,311.16,28.73,0000 0000 0000 0000 000000
2013-07-26 01:11:07,0.07,1.01,0.00,33.79,37.65,39.03,5.68,31.75,1013.20,2006.23,3003.00,2985.91,3230.58,349.88,311.41,28.73,0000 0000 0000 0000 000000
2013-07-26 01:12:07,0.10,1.01,0.00,33.80,37.64,39.03,5.71,31.83,1013.20,2006.30,3003.00,2985.88,3230.44,349.93,311.45,28.74,0000 0000 0000 0000 000000
2013-07-26 01:13:07,0.05,1.01,0.00,33.79,37.63,39.03,5.66,31.58,1013.20,2006.31,3003.00,2985.84,3230.31,350.07,311.72,28.75,0000 0000 0000 0000 000000
2013-07-26 01:14:07,0.05,1.01,0.00,33.77,37.63,39.04,5.88,31.75,1013.20,2006.36,3002.98,2985.74,3230.17,349.95,311.51,28.75,0000 0000 0000 0000 000000
2013-07-26 01:15:08,0.07,1.01,0.00,33.73,37.63,39.07,5.68,31.75,1013.20,2006.46,3002.95,2985.69,3230.20,349.74,311.34,28.76,0000 0000 0000 0000 000000
2013-07-26 01:16:08,0.09,1.01,0.00,33.78,37.62,39.03,5.76,31.67,1013.20,2006.61,3002.94,2985.72,3230.21,349.91,311.46,28.76,0000 0000 0000 0000 000000
2013-07-26 01:17:08,0.12,1.01,0.00,33.84,37.60,39.00,5.78,31.63,1013.20,2006.73,3002.88,2985.76,3230.25,350.32,311.60,28.77,0000 0000 0000 0000 000000
2013-07-26 01:18:09,0.12,1.01,0.00,33.78,37.60,38.98,5.65,31.79,1013.20,2006.84,3002.86,2985.78,3230.34,350.30,311.80,28.78,0000 0000 0000 0000 000000
2013-07-26 01:19:09,0.05,1.01,0.00,33.77,37.60,39.04,5.71,31.63,1013.20,2006.94,3002.69,2985.85,3230.48,349.29,310.69,28.78,0000 0000 0000 0000 000000
2013-07-26 01:20:09,0.05,1.01,0.00,33.80,37.59,39.00,5.72,31.75,1013.20,2006.97,3002.71,2985.89,3230.64,349.75,311.30,28.79,0000 0000 0000 0000 000000
2013-07-26 01:21:09,0.01,1.01,0.00,33.79,37.58,38.96,5.81,31.50,1013.19,2006.98,3002.64,2985.86,3230.56,350.24,311.74,28.79,0000 0000 0000 0000 000000
2013-07-26 01:22:10,0.01,1.01,0.00,33.81,37.58,38.98,5.68,31.71,1013.18,2006.98,3002.53,2985.82,3230.52,350.32,311.79,28.80,0000 0000 0000 0000 000000
2013-07-26 01:23:10,0.03,1.01,0.00,33.80,37.58,39.00,5.92,31.79,1013.19,2006.99,3002.34,2985.83,3230.51,349.53,311.32,28.80,0000 0000 0000 0000 000000
2013-07-26 01:24:10,0.04,1.01,0.00,33.77,37.56,39.00,5.73,31.50,1013.20,2006.99,3002.23,2985.86,3230.56,349.57,311.16,28.81,0000 0000 0000 0000 000000
2013-07-26 01:25:11,-0.00,1.01,0.00,33.76,37.55,38.96,5.73,31.42,1013.20,2006.99,3002.19,2985.90,3230.62,350.27,311.42,28.82,0000 0000 0000 0000 000000
2013-07-26 01:26:11,-0.01,1.01,0.00,33.74,37.55,39.01,5.82,31.63,1013.18,2006.99,3002.13,2985.92,3230.58,349.84,311.43,28.82,0000 0000 0000 0000 000000
2013-07-26 01:27:11,0.01,1.01,0.00,33.72,37.55,39.02,5.77,31.50,1013.18,2006.99,3002.13,2985.90,3230.51,350.14,311.01,28.83,0000 0000 0000 0000 000000
2013-07-26 01:28:11,0.01,1.01,0.00,33.74,37.54,38.96,5.70,31.54,1013.18,2006.99,3002.09,2985.89,3230.53,349.79,311.39,28.83,0000 0000 0000 0000 000000
2013-07-26 01:29:12,0.01,1.01,0.00,33.75,37.53,38.97,5.66,31.67,1013.19,2006.99,3002.08,2985.88,3230.63,349.56,311.18,28.84,0000 0000 0000 0000 000000
2013-07-26 01:30:12,-0.01,1.01,0.00,33.74,37.53,38.98,5.60,31.38,1013.19,2006.99,3002.08,2985.89,3230.65,349.43,311.20,28.85,0000 0000 0000 0000 000000
2013-07-26 01:31:12,-0.01,1.01,0.00,33.75,37.53,38.93,5.80,31.46,1013.20,2006.99,3002.04,2985.91,3230.62,349.70,311.30,28.85,0000 0000 0000 0000 000000
2013-07-26 01:32:13,0.00,1.01,0.00,33.75,37.52,38.92,5.80,31.75,1013.19,2007.02,3002.01,2985.95,3230.60,350.12,311.61,28.86,0000 0000 0000 0000 000000
2013-07-26 01:33:13,0.01,1.01,0.00,33.72,37.50,38.89,5.86,31.71,1013.20,2007.05,3002.00,2985.96,3230.62,350.54,311.76,28.86,0000 0000 0000 0000 000000
2013-07-26 01:34:13,0.02,1.01,0.00,33.72,37.50,38.92,5.68,31.50,1013.20,2007.06,3002.00,2985.95,3230.57,349.47,311.13,28.87,0000 0000 0000 0000 000000
2013-07-26 01:35:13,0.02,1.01,0.00,33.70,37.50,38.91,5.79,31.46,1013.20,2007.08,3002.00,2985.92,3230.46,350.25,311.84,28.88,0000 0000 0000 0000 000000
2013-07-26 01:36:14,0.03,1.01,0.00,33.71,37.50,38.91,5.83,31.88,1013.20,2007.13,3002.00,2985.88,3230.55,350.63,311.83,28.88,0000 0000 0000 0000 000000
2013-07-26 01:37:14,0.03,1.01,0.00,33.70,37.48,38.89,5.84,31.67,1013.20,2007.19,3002.00,2985.92,3230.68,350.41,311.73,28.89,0000 0000 0000 0000 000000
2013-07-26 01:38:14,0.01,1.01,0.00,33.71,37.48,38.90,5.67,31.58,1013.20,2007.25,3002.00,2985.94,3230.70,350.81,312.87,28.89,0000 0000 0000 0000 000000
2013-07-26 01:39:15,0.05,1.01,0.00,33.71,37.48,38.89,5.78,31.75,1013.21,2007.36,3002.00,2985.94,3230.75,350.50,312.06,28.90,0000 0000 0000 0000 000000
2013-07-26 01:40:15,0.08,1.01,0.00,33.67,37.48,38.90,5.64,31.58,1013.20,2007.40,3002.00,2985.93,3230.67,349.57,311.26,28.90,0000 0000 0000 0000 000000
2013-07-26 01:41:15,0.03,1.01,0.00,33.66,37.46,38.90,5.66,31.67,1013.21,2007.37,3002.00,2985.91,3230.63,349.30,311.03,28.91,0000 0000 0000 0000 000000
2013-07-26 01:42:15,0.02,1.01,0.00,33.69,37.45,38.93,5.83,31.79,1013.21,2007.41,3001.99,2985.87,3230.49,350.20,311.81,28.92,0000 0000 0000 0000 000000
2013-07-26 01:43:16,0.03,1.02,0.00,33.73,37.45,38.94,5.67,31.67,1013.22,2007.48,3001.98,2985.78,3230.45,349.54,311.19,28.92,0000 0000 0000 0000 000000
2013-07-26 01:44:16,0.07,1.02,0.00,33.75,37.45,38.97,5.79,31.75,1013.23,2007.56,3001.96,2985.78,3230.42,350.71,312.21,28.93,0000 0000 0000 0000 000000
2013-07-26 01:45:16,0.07,1.02,0.00,33.73,37.44,38.90,5.83,31.67,1013.22,2007.62,3001.96,2985.78,3230.42,350.00,311.58,28.93,0000 0000 0000 0000 000000
2013-07-26 01:46:17,0.04,1.02,0.00,33.70,37.43,38.85,5.63,31.50,1013.21,2007.71,3001.95,2985.84,3230.54,349.41,311.11,28.94,0000 0000 0000 0000 000000
2013-07-26 01:47:17,0.06,1.02,0.00,33.66,37.43,38.82,5.79,31.71,1013.22,2007.84,3001.96,2985.89,3230.64,350.53,312.14,28.95,0000 0000 0000 0000 000000
2013-07-26 01:48:17,0.05,1.02,0.00,33.66,37.43,38.88,5.88,31.67,1013.23,2007.89,3001.98,2985.90,3230.70,350.04,311.77,28.95,0000 0000 0000 0000 000000
2013-07-26 01:49:17,0.03,1.02,0.00,33.62,37.42,38.86,5.89,31.63,1013.22,2007.92,3001.95,2985.93,3230.81,350.50,312.16,28.96,0000 0000 0000 0000 000000
2013-07-26 01:50:18,0.01,1.02,0.00,33.65,37.41,38.85,5.61,31.67,1013.22,2007.96,3001.97,2985.97,3230.81,349.06,310.90,28.96,0000 0000 0000 0000 000000
2013-07-26 01:51:18,0.01,1.02,0.00,33.67,37.40,38.86,5.74,31.71,1013.23,2007.97,3001.97,2985.96,3230.78,349.80,311.49,28.97,0000 0000 0000 0000 000000
2013-07-26 01:52:18,0.01,1.02,0.00,33.64,37.40,38.87,5.77,31.83,1013.24,2007.98,3001.98,2985.97,3230.79,349.51,311.28,28.97,0000 0000 0000 0000 000000
2013-07-26 01:53:18,0.00,1.02,0.00,33.59,37.40,38.88,5.83,31.75,1013.25,2007.99,3001.98,2985.99,3230.85,350.25,311.96,28.98,0000 0000 0000 0000 000000
2013-07-26 01:54:19,0.00,1.02,0.00,33.58,37.38,38.83,5.91,31.79,1013.30,2007.99,3001.99,2985.99,3230.92,350.53,312.25,28.99,0000 0000 0000 0000 000000
2013-07-26 01:55:19,0.00,1.02,0.00,33.56,37.38,38.84,5.72,31.58,1013.38,2007.99,3001.99,2985.99,3230.91,349.67,311.18,28.99,0000 0000 0000 0000 000000
2013-07-26 01:56:19,0.00,1.02,0.00,33.58,37.38,38.82,5.65,31.50,1013.45,2007.99,3001.99,2985.99,3230.90,349.75,311.60,29.00,0000 0000 0000 0000 000000
2013-07-26 01:57:20,0.00,1.02,0.00,33.58,37.38,38.83,5.49,31.46,1013.46,2007.99,3001.99,2985.99,3230.88,349.57,311.44,29.00,0000 0000 0000 0000 000000
2013-07-26 01:58:20,0.00,1.02,0.00,33.57,37.37,38.80,5.83,31.63,1013.54,2007.99,3001.99,2985.99,3230.93,350.92,312.68,29.01,0000 0000 0000 0000 000000
2013-07-26 01:59:20,0.00,1.02,0.00,33.57,37.35,38.81,5.60,31.38,1013.59,2007.99,3001.99,2985.99,3230.97,350.84,312.62,29.02,0000 0000 0000 0000 000000
2013-07-26 02:00:20,0.00,1.02,0.00,33.56,37.35,38.77,5.60,31.58,1013.65,2007.99,3001.99,2985.99,3230.97,349.41,311.38,29.02,0000 0000 0000 0000 000000
2013-07-26 02:01:20,0.00,1.02,0.00,33.57,37.35,38.79,5.55,31.50,1013.62,2007.99,3001.99,2985.99,3230.99,349.42,311.36,29.03,0000 0000 0000 0000 000000
2013-07-26 02:02:21,0.00,1.02,0.00,33.57,37.35,38.78,5.92,31.75,1013.63,2007.99,3001.99,2985.99,3230.98,350.95,312.51,29.03,0000 0000 0000 0000 000000
2013-07-26 02:03:21,0.00,1.02,0.00,33.53,37.34,38.79,5.65,31.71,1013.68,2007.99,3001.99,2985.99,3230.99,349.54,311.67,29.04,0000 0000 0000 0000 000000
2013-07-26 02:04:21,0.00,1.02,0.00,33.54,37.33,38.78,5.77,31.63,1013.69,2007.99,3001.99,2985.99,3230.99,350.44,312.84,29.05,0000 0000 0000 0000 000000
2013-07-26 02:05:21,0.00,1.02,0.00,33.57,37.33,38.80,5.80,31.67,1013.69,2007.99,3001.99,2985.99,3230.99,350.27,312.33,29.05,0000 0000 0000 0000 000000
2013-07-26 02:06:22,0.00,1.02,0.00,33.56,37.33,38.78,5.97,31.63,1013.68,2007.99,3001.99,2985.99,3230.99,350.83,312.64,29.06,0000 0000 0000 0000 000000
2013-07-26 02:07:22,0.00,1.02,0.00,33.60,37.32,38.76,5.70,31.25,1013.69,2008.00,3001.99,2986.01,3230.99,349.81,311.71,29.06,0000 0000 0000 0000 000000
2013-07-26 02:08:22,0.01,1.02,0.00,33.62,37.30,38.79,5.55,31.50,1013.69,2008.02,3002.01,2986.03,3230.99,348.71,311.01,29.07,0000 0000 0000 0000 000000
2013-07-26 02:09:22,-0.01,1.02,0.00,33.59,37.30,38.76,5.91,31.63,1013.69,2008.00,3002.01,2986.03,3230.99,350.90,312.68,29.07,0000 0000 0000 0000 000000
2013-07-26 02:10:23,-0.01,1.02,0.00,33.54,37.30,38.75,5.81,31.71,1013.69,2008.00,3002.00,2986.07,3230.99,350.14,312.03,29.08,0000 0000 0000 0000 000000
2013-07-26 02:11:23,-0.01,1.02,0.00,33.56,37.30,38.70,5.87,31.63,1013.69,2008.02,3002.01,2986.08,3231.00,349.97,311.80,29.09,0000 0000 0000 0000 000000
2013-07-26 02:12:23,0.01,1.02,0.00,33.57,37.29,38.74,5.92,31.71,1013.69,2008.03,3002.02,2986.08,3231.00,350.79,312.68,29.09,0000 0000 0000 0000 000000
2013-07-26 02:13:24,0.01,1.02,0.00,33.57,37.28,38.82,5.59,31.33,1013.69,2008.08,3002.01,2986.19,3231.04,349.30,311.64,29.10,0000 0000 0000 0000 000000
2013-07-26 02:14:24,0.01,1.02,0.00,33.53,37.28,38.90,5.87,31.58,1013.69,2008.09,3002.03,2986.26,3231.06,350.02,311.94,29.10,0000 0000 0000 0000 000000
2013-07-26 02:15:24,-0.03,1.02,0.00,33.54,37.28,38.82,5.83,31.75,1013.69,2008.10,3002.07,2986.35,3231.06,349.57,311.99,29.11,0000 0000 0000 0000 000000
2013-07-26 02:16:25,-0.01,1.02,0.00,33.52,37.27,38.75,5.86,31.71,1013.69,2008.13,3002.08,2986.46,3231.11,350.58,312.47,29.12,0000 0000 0000 0000 000000
2013-07-26 02:17:25,-0.01,1.02,0.00,33.51,37.26,38.81,5.56,31.71,1013.69,2008.19,3002.08,2986.59,3231.18,349.67,311.66,29.12,0000 0000 0000 0000 000000
2013-07-26 02:18:25,0.01,1.02,0.00,33.53,37.25,38.75,5.82,31.33,1013.69,2008.25,3002.10,2986.62,3231.18,350.45,312.34,29.13,0000 0000 0000 0000 000000
2013-07-26 02:19:26,0.06,1.02,0.00,33.55,37.25,38.74,5.73,31.63,1013.70,2008.33,3002.14,2986.65,3231.23,349.95,311.88,29.13,0000 0000 0000 0000 000000
2013-07-26 02:20:26,0.05,1.02,0.00,33.56,37.25,38.72,5.88,31.54,1013.69,2008.39,3002.12,2986.67,3231.25,350.23,312.12,29.14,0000 0000 0000 0000 000000
2013-07-26 02:21:26,0.00,1.02,0.00,33.57,37.23,38.71,5.65,31.54,1013.71,2008.46,3002.23,2986.81,3231.42,350.81,312.63,29.14,0000 0000 0000 0000 000000
2013-07-26 02:22:26,0.02,1.02,0.00,33.54,37.23,38.72,5.70,31.50,1013.71,2008.64,3002.32,2986.88,3231.61,349.73,311.72,29.15,0000 0000 0000 0000 000000
2013-07-26 02:23:27,0.06,1.02,0.00,33.50,37.23,38.67,5.67,31.54,1013.72,2008.77,3002.47,2986.95,3231.82,349.23,311.29,29.16,0000 0000 0000 0000 000000
2013-07-26 02:24:27,0.06,1.02,0.00,33.51,37.23,38.71,5.60,31.63,1013.71,2008.87,3002.58,2986.97,3231.90,350.51,312.42,29.16,0000 0000 0000 0000 000000
2013-07-26 02:25:27,0.02,1.02,0.00,33.48,37.22,38.66,5.92,31.71,1013.74,2008.85,3002.63,2986.97,3231.93,350.79,312.49,29.17,0000 0000 0000 0000 000000
2013-07-26 02:26:28,-0.03,1.02,0.00,33.48,37.21,38.72,5.76,31.46,1013.71,2008.85,3002.72,2986.98,3231.92,350.39,312.35,29.17,0000 0000 0000 0000 000000
2013-07-26 02:27:28,-0.02,1.02,0.00,33.48,37.20,38.76,5.84,31.71,1013.73,2008.86,3002.77,2986.99,3231.93,350.34,312.30,29.18,0000 0000 0000 0000 000000
2013-07-26 02:28:28,0.02,1.02,0.00,33.48,37.20,38.72,5.80,31.46,1013.72,2008.92,3002.78,2986.99,3231.97,350.10,312.09,29.19,0000 0000 0000 0000 000000
2013-07-26 02:29:29,0.03,1.02,0.00,33.49,37.20,38.69,5.74,31.46,1013.75,2008.94,3002.84,2986.99,3231.99,350.11,312.24,29.19,0000 0000 0000 0000 000000
2013-07-26 02:30:29,0.02,1.02,0.00,33.51,37.19,38.67,5.99,31.67,1013.73,2008.97,3002.82,2986.99,3231.99,350.74,312.53,29.20,0000 0000 0000 0000 000000
2013-07-26 02:31:29,0.01,1.02,0.00,33.45,37.18,38.70,5.76,31.33,1013.73,2008.99,3002.88,2986.99,3231.99,350.69,312.65,29.20,0000 0000 0000 0000 000000
2013-07-26 02:32:30,0.00,1.02,0.00,33.43,37.18,38.71,5.66,31.67,1013.71,2008.99,3002.88,2986.99,3231.98,349.72,311.80,29.21,0000 0000 0000 0000 000000
2013-07-26 02:33:30,0.00,1.02,0.00,33.45,37.18,38.73,5.70,31.50,1013.71,2008.98,3002.80,2986.99,3231.99,350.20,312.04,29.22,0000 0000 0000 0000 000000
2013-07-26 02:34:30,-0.01,1.02,0.00,33.47,37.17,38.77,5.66,31.71,1013.70,2008.98,3002.81,2986.99,3231.99,350.15,312.14,29.22,0000 0000 0000 0000 000000
2013-07-26 02:35:31,-0.00,1.02,0.00,33.48,37.16,38.69,5.95,31.79,1013.71,2008.99,3002.84,2986.99,3231.99,350.73,312.65,29.23,0000 0000 0000 0000 000000
2013-07-26 02:36:31,0.00,1.02,0.00,33.47,37.15,38.67,5.65,31.46,1013.71,2008.99,3002.85,2986.99,3231.98,349.15,311.50,29.23,0000 0000 0000 0000 000000